User: anonymous
Location: Drayton Valley
(53.2170°N, 114.9830°W)
Time: 11:44:38
(UTC-06:00)
Language:

Cosmos 1302 Rocket - Orbit

View from above orbital plane
View from above orbital plane
View from above satellite
View from above satellite

Ground track
Ground track

The orbit data is extracted from the following two-line orbital elements,

1 12792U 81084B   14204.54156970 -.00000057  00000-0 -10355-4 0  5651
2 12792 074.0295 185.6578 0013804 002.9170 128.9941 14.37111915722812
Epoch (UTC): 23 July 2014 12:59:51
Eccentricity: 0.0013804
inclination: 74.0295°
perigee height: 758 km
apogee height: 778 km
right ascension of ascending node: 185.6578°
argument of perigee: 2.9170°
revolutions per day: 14.37111915
mean anomaly at epoch: 128.9941°
orbit number at epoch: 72281

The dashed part of the orbit path shows where the satellite is in the earth's shadow,  

DLR